FENGYUN 2D DEB, 33458

Orbit data source: Space-Track

FENGYUN 2D DEB, 33458 is space debris in GEO originally from a launch on Fri, 08 Dec 2006 UTC launched from the Xichang Space Center, China (XSC). Debris objects in space refer to the collection of defunct objects orbiting the Earth. Examples of debris include non-operational satellites, rocket bodies, and fragments generated from explosions, collisions, or faulty payload assembly.

Not visible in the next 10 days
Identifier
33458, 2006-053D
Orbit
GEO
Country
Flag of CNCN / PRC
Related business
Manufacturer
Unknown
Mission
Spacecraft
Bus & Motor
Unknown
Mass
Unknown
Launch date (UTC)
2006-12-08 (19 years ago)
Launch vehicle
Unknown
Launch site
Xichang Space Center, China (XSC)
Object type
Payload
Rocket body
Debris
Shape & HBR
Unknown
Radar Cross Section
Medium (>0.1 m² and <1 m²)

Expand to show TLE details & history
Last TLE update: 1 day ago

TLE from 1 day ago
0 FENGYUN 2D DEB
1 33458U 06053D   25240.86658697 -.00000175  00000-0  00000-0 0  9999
2 33458  11.1355  39.5556 0030237  36.7726 296.4553  1.00253264 62443
Epoch: 2025-08-28T20:47Z
TLE epoch observation values (Epoch: 2025-08-28T20:47:53.114Z)
Latitude
-5.05872°
Longitude
83.60373°
Altitude
35,736.061 km
Speed
3.079 km/s
True Right ascension
00h 51m 35s
True Declination
-5° 03' 13"
Sunlit
Object was in daylight at epoch
Visualization orbit readout
Latitude
Unknown
Longitude
Unknown
Altitude
Unknown
Speed
Unknown
Apparent Right ascension
Unknown
Apparent Declination
Unknown
Sunlit
N/A
Visualization observer readout
Local Sidereal Time
16:53:36
Azimuth
Unknown
Elevation
Unknown
Doppler factor
Unknown
Orbital elements
Apogee altitude
35,920.312 km
Perigee altitude
35,665.287 km
Semi-major axis
42,170.937 km
Eccentricity
0.00302
Inclination
11.1355°
RAAN
39.5556°
Arg. of periapsis
36.7726°
True anomaly
296.14457°
Mean anomaly
296.4553°
Eccentric anomaly
296.29999°
Mean motion
0.25062 °/min
Orbital period
1,436.41 mins
BSTAR
0
Loading maneuver chart data...
Computing Atmospheric mass density...
Loading historical data...
Loading historical data...
Loading historical data...
Loading historical data...
Loading historical data...
Loading historical data...
Loading historical data...
Other satellites on launch #53 in the year 2006 (2006-12-08 UTC)

Documentation

Showing up to 5 results
|